Temperature
9 10 10 10 10 10 9 9 9 11 12 12 12 12 12 12 12 12 11 11 11 10 10 9 9 8 9 9 9 10 10 9 9 9 9 8 7 6 5 4 4 3 3 3
7 9 10 9 10 10 10 10 10 10 11 11 12 12 12 11 11 11 11 10 10 10 10 9 9 9 9 9 9 9 9 9 9 8 8 7 6 5 4 3 2 2 2 2
8 9 9 8 10 10 10 11 11 10 10 10 9 10 10 10 10 10 10 9 9 10 10 10 9 9 9 9 9 9 9 9 9 8 7 6 5 4 3 2 2 1 1 2
7 8 6 9 9 10 10 10 10 10 9 9 9 9 9 9 9 8 8 8 9 9 9 10 10 9 9 9 9 9 9 9 8 8 7 5 4 3 2 1 1 1 1 1
7 7 8 9 9 9 9 8 8 8 8 8 8 8 9 8 8 7 7 7 8 8 9 9 9 9 9 9 9 9 9 8 8 7 6 5 3 2 1 1 0 1 1 1
7 7 8 7 8 9 8 7 7 7 7 7 7 6 7 7 6 6 7 7 7 8 8 9 9 9 8 8 9 9 8 8 7 6 5 4 3 1 1 0 0 0 0 0
7 7 7 6 8 8 7 5 6 6 6 5 5 5 5 5 5 5 6 6 6 7 7 7 8 8 8 8 8 8 7 7 7 6 4 3 2 1 0 0 0 0 0 1
7 6 6 6 7 5 4 5 5 4 4 4 4 4 4 4 4 4 5 5 5 6 6 6 6 7 7 7 7 7 7 6 6 5 4 3 2 1 0 0 0 0 0 1
6 5 5 5 4 4 4 3 3 3 3 3 3 3 3 3 3 4 4 4 5 5 5 5 6 6 6 6 6 6 6 6 5 4 4 3 2 2 1 0 0 1 1 1
5 6 5 5 4 3 3 2 2 2 2 2 2 2 2 2 2 3 3 4 4 4 4 5 5 5 5 5 5 5 5 5 5 4 4 3 2 1 1 1 1 1 1 1
5 4 4 4 3 2 2 1 1 1 1 1 1 1 1 1 2 2 2 3 3 3 4 4 4 5 5 5 5 5 5 4 4 4 3 3 2 2 2 2 1 1 1 1
3 2 2 2 1 1 0 0 0 0 0 0 0 0 0 1 1 1 1 2 2 3 3 3 4 4 4 4 4 4 4 4 4 3 3 3 2 2 2 2 1 1 1 1
2 1 1 1 0 0 -0 -0 -0 -0 -1 -0 -0 -0 -0 -0 0 0 1 1 1 2 2 3 3 3 3 3 3 3 3 3 3 3 3 2 2 2 2 1 1 1 1 1
1 0 0 -0 -0 -1 -1 -1 -1 -1 -1 -1 -1 -1 -1 -1 -1 -0 -0 0 0 1 1 2 2 3 3 3 3 3 3 2 2 2 2 2 2 2 2 1 1 2 1 1
0 -0 -1 -1 -1 -1 -1 -1 -1 -1 -2 -2 -2 -2 -2 -2 -1 -1 -1 -1 -0 0 1 1 1 2 2 2 2 2 2 2 2 2 2 1 1 1 1 1 1 1 1 1
-0 -0 -1 -1 -1 -1 -2 -2 -2 -2 -2 -2 -2 -2 -2 -2 -2 -2 -1 -1 -1 -1 -0 0 1 1 1 1 1 2 2 2 1 1 1 1 1 1 1 1 1 1 1 1
-0 -1 -1 -1 -1 -2 -2 -2 -2 -2 -3 -3 -3 -3 -3 -2 -2 -2 -2 -2 -2 -1 -1 -1 -0 0 0 1 1 1 1 1 1 1 1 1 1 1 1 1 1 1 1 1
-0 -1 -1 -2 -2 -2 -2 -2 -2 -2 -3 -3 -3 -3 -3 -3 -3 -3 -3 -2 -2 -2 -1 -1 -1 -1 -0 -0 0 0 0 0 0 0 1 1 0 0 0 0 0 0 1 1
-0 -1 -1 -1 -1 -2 -2 -2 -2 -2 -2 -3 -3 -3 -3 -3 -3 -3 -3 -3 -3 -3 -2 -2 -2 -2 -1 -1 -1 -1 -0 -0 -0 -0 -0 -0 -0 -0 -0 -0 -0 -0 0 0
-0 -1 -1 -1 -1 -2 -2 -2 -2 -2 -2 -3 -3 -3 -3 -4 -4 -4 -4 -4 -3 -3 -3 -3 -3 -2 -2 -2 -1 -1 -1 -1 -1 -1 -1 -1 -1 -0 -0 -0 -0 -0 -0 -0
-0 -1 -1 -1 -1 -1 -2 -2 -2 -2 -3 -3 -3 -4 -4 -4 -4 -4 -4 -4 -3 -4 -4 -3 -3 -3 -3 -2 -2 -2 -1 -1 -1 -1 -1 -1 -1 -1 -1 -1 -1 -1 -1 -1
-1 -1 -1 -1 -2 -2 -2 -2 -3 -3 -3 -3 -4 -4 -4 -4 -4 -5 -5 -4 -4 -4 -4 -4 -3 -3 -3 -3 -3 -3 -2 -2 -2 -2 -2 -1 -1 -1 -1 -1 -1 -1 -1 -1
-1 -1 -1 -2 -2 -2 -2 -2 -3 -3 -3 -3 -4 -4 -4 -4 -5 -5 -5 -4 -4 -4 -4 -4 -4 -4 -4 -3 -3 -3 -3 -3 -2 -2 -2 -2 -2 -2 -2 -2 -2 -2 -2 -2
-1 -1 -2 -2 -2 -2 -2 -3 -3 -3 -3 -3 -4 -4 -4 -4 -4 -5 -5 -5 -5 -5 -5 -5 -4 -4 -4 -4 -4 -4 -4 -3 -3 -3 -3 -3 -3 -3 -3 -3 -3 -3 -3 -3
-2 -2 -2 -2 -2 -3 -3 -3 -3 -3 -3 -4 -4 -4 -4 -4 -5 -5 -5 -5 -5 -5 -5 -5 -5 -5 -4 -4 -4 -4 -4 -4 -4 -4 -4 -4 -4 -4 -4 -4 -4 -4 -4 -4
-2 -2 -2 -3 -3 -3 -3 -4 -4 -4 -4 -4 -4 -4 -4 -5 -5 -5 -5 -5 -5 -5 -5 -5 -5 -5 -5 -5 -5 -5 -4 -4 -4 -4 -4 -4 -4 -4 -4 -4 -4 -4 -4 -4
-2 -2 -3 -3 -3 -4 -4 -4 -4 -4 -4 -5 -5 -4 -5 -5 -5 -5 -5 -5 -5 -5 -5 -5 -5 -5 -5 -5 -5 -5 -5 -5 -5 -4 -4 -5 -5 -4 -4 -4 -4 -4 -4 -4
Wind_Speed
3 3 2 2 6 9 9 7 5 5 6 4 3 4 5 5 5 4 4 3 4 6 7 8 9 8 8 8 8 8 8 7 6 6 6 5 5 4 3 3 3 3 4 4
1 1 1 3 6 8 9 9 9 9 9 6 7 7 7 7 7 6 6 5 5 5 7 9 10 10 9 9 9 8 8 7 7 7 6 5 5 4 4 3 3 3 3 3
1 2 2 5 5 7 7 5 5 7 4 6 7 8 8 8 7 7 8 7 6 6 7 8 9 11 11 10 9 9 8 8 8 7 7 6 5 5 5 4 3 3 3 4
1 1 4 1 5 4 2 2 3 3 5 7 7 8 7 5 7 8 9 9 8 6 5 6 7 9 10 10 10 9 9 8 9 8 7 7 6 6 5 4 4 3 3 5
1 3 3 4 3 3 1 2 7 6 7 8 9 8 2 8 9 9 8 8 8 7 6 3 6 8 10 10 10 9 9 9 9 9 8 8 7 6 5 4 4 4 3 4
2 2 1 4 4 4 2 2 7 7 7 8 8 5 5 12 12 10 9 8 8 8 4 1 4 7 10 10 10 10 9 9 9 9 9 8 8 6 5 5 5 5 4 3
4 3 1 3 4 3 1 1 6 7 7 7 6 5 9 12 10 9 9 9 8 7 4 1 3 6 7 8 9 8 8 8 8 8 8 8 7 6 6 6 6 5 5 4
2 3 1 6 4 4 4 5 7 8 8 8 8 9 10 10 10 10 9 8 8 6 4 2 2 4 5 6 6 7 8 8 8 8 8 8 8 7 7 7 6 6 5 5
2 1 4 6 6 5 5 6 7 8 8 8 10 10 11 10 10 9 9 7 6 5 3 1 1 3 5 5 7 8 8 8 8 8 7 8 9 9 8 7 6 6 5 5
1 2 4 4 5 6 7 7 8 8 9 9 10 11 11 10 10 10 8 7 6 6 4 3 3 4 4 6 7 8 8 8 8 9 8 8 7 7 7 7 7 6 6 6
2 2 4 4 7 8 9 8 9 9 9 10 11 12 12 11 10 9 9 7 6 6 6 5 3 4 4 6 8 8 8 8 8 8 8 8 7 7 8 8 8 8 7 6
1 4 3 5 7 8 8 9 10 10 11 10 10 12 12 10 9 9 9 9 7 7 7 5 4 5 5 6 8 8 8 8 7 7 7 7 7 6 10 10 13 13 11 9
2 4 4 7 6 7 8 9 10 10 10 11 10 10 11 10 9 10 10 10 9 8 7 6 5 5 5 6 8 9 8 8 7 7 7 7 7 7 6 9 13 14 14 14
1 3 4 4 6 8 8 9 9 9 9 9 9 9 9 10 10 10 10 10 10 9 8 7 6 6 5 6 8 9 8 9 9 8 8 8 8 7 7 6 7 7 12 18
1 2 5 7 7 8 8 8 9 9 9 9 9 9 9 10 11 11 10 10 10 9 8 7 6 5 3 4 7 8 8 7 7 7 7 8 7 7 7 7 7 6 5 8
3 5 6 7 8 8 9 9 9 10 10 10 10 10 10 10 11 11 9 8 9 10 9 8 7 5 4 4 5 7 7 10 9 7 7 8 8 8 8 8 8 8 8 7
3 5 6 7 8 9 9 9 9 10 10 10 11 11 11 11 11 10 9 8 8 9 8 7 7 6 5 5 5 5 6 7 11 8 7 8 8 9 8 8 8 9 8 8
4 5 7 8 9 10 10 10 9 10 10 10 11 11 10 11 11 11 10 9 9 9 7 5 5 6 6 5 5 4 5 5 6 7 7 7 7 7 8 8 9 9 7 7
5 6 7 8 8 9 9 10 10 9 10 10 10 11 11 11 10 10 9 9 9 9 6 4 7 7 7 6 5 4 5 5 5 6 6 9 8 7 8 8 8 8 7 7
6 7 8 9 9 9 10 10 10 10 9 9 10 11 11 11 10 9 8 8 7 6 6 7 7 6 6 6 6 4 5 5 5 5 5 6 6 6 7 7 7 7 7 7
7 8 9 9 9 10 10 10 9 10 10 9 9 11 11 11 10 8 8 9 6 5 5 8 6 5 5 6 7 4 4 4 4 5 5 5 5 5 6 6 6 6 6 6
7 8 9 9 9 10 9 8 9 10 10 10 10 10 10 11 10 8 8 8 7 7 5 5 5 6 7 8 4 4 4 4 4 4 4 4 5 5 5 5 5 5 5 5
7 8 9 9 9 10 10 9 9 9 10 10 10 10 10 9 7 8 9 5 4 7 6 5 7 9 10 6 4 4 4 3 3 3 3 3 4 4 4 4 4 4 4 5
8 9 9 9 8 9 11 11 9 8 8 9 9 9 9 8 7 6 7 9 9 10 5 7 9 9 8 3 3 3 3 3 2 2 2 2 2 3 3 3 4 4 4 4
9 9 9 9 9 9 10 9 9 8 8 8 9 8 7 6 7 7 6 6 9 9 5 6 8 8 4 2 3 3 2 2 2 2 2 2 2 2 3 3 3 3 3 4
8 8 8 8 8 8 7 7 7 7 7 8 8 6 5 5 6 6 6 6 7 8 6 4 4 4 2 2 2 2 2 2 2 1 1 1 2 2 2 2 3 3 3 3
8 8 7 7 7 7 6 6 7 8 7 8 9 7 6 6 5 5 6 6 5 5 4 4 3 2 2 2 2 2 2 2 1 1 1 1 1 2 2 2 2 3 3 3
Wind_Direction
1 15 74 201 215 215 213 213 227 252 266 291 348 11 11 7 5 353 324 289 236 205 194 185 181 178 174 169 160 155 155 158 155 140 124 118 123 125 118 113 108 104 108 111
285 219 241 256 247 235 229 231 245 267 282 328 357 7 4 355 348 331 316 300 276 236 207 191 185 182 177 173 166 160 164 164 149 138 136 141 145 141 139 132 121 115 121 125
266 126 289 258 243 232 226 228 246 260 292 359 357 353 341 334 334 326 316 306 289 263 227 204 191 181 179 174 163 165 167 160 153 152 155 156 156 153 152 151 147 144 140 124
291 290 242 104 53 39 23 21 14 12 15 13 354 323 310 343 355 334 327 321 309 290 258 217 188 174 166 160 161 167 168 163 159 158 160 160 164 164 160 155 156 150 139 123
233 257 241 117 68 36 25 70 37 24 13 4 341 317 352 32 7 339 326 318 312 302 278 219 175 161 153 157 162 169 174 169 164 162 164 166 171 168 158 152 147 137 124 120
251 264 296 76 41 6 336 124 29 17 8 357 348 338 330 351 343 333 329 325 319 314 313 163 151 144 152 163 169 180 176 167 161 163 168 172 172 165 156 152 150 141 138 139
249 248 79 16 327 326 314 65 11 8 2 354 341 309 313 325 328 328 326 325 324 329 347 23 129 140 161 171 182 174 157 154 157 163 167 167 164 162 159 157 156 160 168 183
235 231 167 11 16 40 29 10 8 360 350 336 320 315 320 324 326 328 330 334 337 340 353 21 110 151 173 182 166 149 150 154 159 164 166 166 163 166 167 166 171 180 187 201
9 76 81 54 66 59 26 2 355 341 331 325 318 318 322 323 324 325 326 329 331 327 323 321 202 185 190 179 156 152 155 162 166 169 169 169 173 175 177 179 185 192 196 203
310 102 78 77 72 39 17 356 339 332 328 326 318 317 317 317 319 320 321 321 323 318 301 270 232 221 201 172 161 162 169 172 173 176 177 178 181 181 184 188 193 196 200 204
269 41 28 59 32 8 350 341 334 329 324 319 316 313 314 313 313 315 316 316 310 300 292 276 240 226 200 174 168 175 178 179 179 182 182 187 191 195 194 197 199 199 202 198
355 38 346 321 347 345 337 332 328 323 318 316 313 309 310 310 312 314 315 314 307 298 293 284 256 234 209 186 181 185 189 187 186 187 188 188 190 203 212 208 214 215 207 202
339 343 309 299 320 344 331 321 318 314 310 311 313 311 311 311 312 312 312 314 312 306 297 289 273 249 219 196 193 198 200 194 189 190 193 194 195 200 210 219 224 227 226 224
349 336 306 324 323 320 315 315 314 311 312 313 314 313 314 313 312 311 312 314 313 307 298 286 275 261 235 204 201 207 207 202 195 196 198 201 203 205 205 205 213 227 229 230
37 334 299 303 307 314 317 317 316 315 317 318 317 316 317 315 311 309 310 311 310 304 299 295 288 283 271 224 212 213 211 208 204 201 200 202 202 205 210 214 220 221 212 224
326 309 302 307 309 312 316 318 315 312 313 312 312 313 312 308 305 304 306 310 309 308 309 307 301 305 303 270 239 226 221 216 207 204 201 202 203 207 213 217 222 224 225 220
300 300 304 305 305 306 308 307 304 304 307 307 308 308 308 307 305 305 308 308 303 299 299 297 297 305 296 274 257 241 228 221 212 209 208 208 208 212 215 218 222 227 230 219
254 271 281 286 291 296 299 300 298 299 300 301 303 304 304 305 305 306 307 309 304 298 289 285 300 309 300 287 271 257 239 225 215 215 214 212 214 213 214 219 224 230 233 227
275 278 283 285 286 288 288 290 292 292 293 295 297 297 295 292 292 294 298 301 300 300 304 313 315 309 299 292 285 261 250 240 226 218 214 219 219 214 214 218 223 226 226 220
276 279 281 284 285 282 283 285 288 288 287 289 290 291 292 291 291 291 291 287 281 280 296 307 307 298 294 293 288 268 256 248 237 225 217 216 218 217 216 218 219 222 223 224
275 278 281 282 284 283 278 279 282 284 286 284 283 287 289 290 290 286 286 287 283 282 297 304 301 293 293 295 293 277 261 252 241 230 222 221 223 221 217 217 219 222 224 225
274 276 277 279 281 284 281 277 276 280 284 284 281 281 285 288 288 282 270 268 278 290 295 290 290 296 303 303 288 276 265 255 248 237 227 221 219 221 220 218 220 222 223 222
274 274 276 277 278 283 287 283 276 275 278 281 282 282 283 282 282 282 285 274 274 287 290 280 288 299 305 303 287 278 267 257 250 242 233 225 222 221 223 223 223 223 224 224
275 276 276 278 281 284 286 285 280 276 275 278 274 272 276 283 282 266 263 279 286 288 280 282 292 298 304 297 289 284 275 266 257 250 243 235 227 224 226 228 228 226 226 227
275 277 277 278 280 278 277 282 287 286 283 282 278 272 266 261 268 278 277 273 279 285 279 284 292 298 300 293 293 292 287 273 261 250 240 242 243 241 239 237 236 236 233 232
274 274 272 267 267 273 279 282 283 285 287 289 289 281 273 268 265 269 271 270 270 279 276 271 279 289 287 285 285 288 290 295 300 291 269 260 256 256 251 248 252 251 249 245
277 275 276 280 278 271 270 271 275 281 282 283 288 287 280 278 273 271 271 270 269 268 265 262 258 258 265 271 276 281 282 280 277 276 278 272 266 263 262 258 259 260 259 254
Height
1482 1479 1479 1481 1482 1483 1488 1490 1492 1486 1483 1481 1480 1481 1481 1481 1481 1482 1482 1481 1480 1480 1479 1480 1481 1482 1484 1486 1488 1491 1493 1494 1495 1496 1496 1495 1495 1494 1494 1494 1494 1494 1494 1494
1487 1482 1482 1483 1482 1481 1482 1483 1484 1485 1484 1481 1480 1480 1481 1481 1481 1481 1481 1480 1478 1477 1477 1476 1477 1478 1480 1482 1485 1487 1489 1490 1491 1491 1491 1491 1490 1490 1490 1490 1490 1491 1491 1491
1487 1482 1483 1487 1479 1479 1479 1479 1481 1484 1484 1482 1482 1482 1482 1482 1481 1480 1479 1477 1475 1474 1473 1473 1473 1474 1476 1478 1481 1482 1484 1485 1486 1487 1487 1486 1486 1486 1486 1487 1487 1488 1488 1488
1489 1488 1494 1484 1478 1478 1479 1480 1481 1482 1483 1484 1484 1483 1481 1481 1480 1478 1477 1474 1472 1470 1469 1468 1469 1470 1472 1473 1475 1478 1479 1481 1482 1482 1482 1482 1482 1482 1483 1484 1484 1485 1485 1486
1489 1487 1482 1482 1480 1480 1482 1484 1485 1485 1485 1485 1484 1481 1480 1479 1478 1477 1474 1471 1469 1467 1465 1464 1464 1465 1467 1468 1470 1473 1474 1476 1477 1477 1477 1477 1477 1478 1479 1480 1481 1482 1483 1484
1486 1489 1484 1487 1483 1482 1484 1488 1489 1488 1488 1487 1485 1485 1481 1479 1477 1474 1471 1468 1465 1463 1461 1460 1460 1461 1462 1464 1466 1468 1469 1471 1472 1472 1472 1473 1474 1475 1476 1477 1478 1480 1481 1482
1488 1487 1484 1489 1484 1484 1489 1494 1492 1490 1489 1488 1487 1487 1483 1479 1475 1472 1469 1465 1462 1460 1458 1458 1457 1458 1458 1460 1461 1464 1465 1466 1467 1468 1468 1469 1470 1471 1473 1474 1476 1477 1478 1479
1485 1488 1493 1490 1487 1491 1495 1493 1492 1491 1489 1488 1486 1483 1480 1477 1473 1470 1466 1463 1460 1458 1456 1455 1455 1455 1455 1456 1458 1459 1461 1462 1463 1464 1465 1465 1467 1468 1469 1471 1472 1474 1475 1476
1490 1493 1492 1491 1492 1494 1493 1493 1491 1490 1488 1486 1483 1480 1477 1474 1470 1467 1464 1461 1459 1456 1454 1453 1452 1452 1452 1453 1454 1455 1457 1458 1459 1460 1461 1462 1463 1465 1466 1467 1469 1470 1472 1473
1489 1489 1491 1491 1492 1493 1492 1491 1490 1488 1486 1483 1481 1477 1474 1471 1468 1465 1462 1460 1457 1455 1453 1451 1450 1450 1450 1450 1451 1452 1453 1454 1455 1456 1457 1458 1459 1461 1462 1464 1465 1467 1469 1470
1490 1490 1491 1491 1492 1491 1490 1489 1487 1485 1483 1480 1477 1474 1471 1468 1465 1462 1459 1457 1455 1452 1450 1449 1448 1448 1447 1448 1448 1449 1450 1451 1451 1452 1453 1454 1456 1457 1458 1460 1462 1464 1465 1467
1493 1493 1493 1492 1491 1489 1488 1486 1484 1481 1478 1476 1474 1471 1468 1465 1462 1459 1456 1453 1451 1449 1447 1446 1445 1444 1444 1444 1444 1445 1445 1446 1447 1448 1449 1450 1452 1453 1454 1456 1458 1459 1461 1463
1492 1491 1491 1490 1489 1487 1485 1482 1480 1477 1475 1472 1469 1467 1464 1461 1458 1455 1452 1450 1447 1445 1443 1442 1441 1440 1440 1440 1440 1440 1441 1442 1443 1444 1445 1446 1447 1449 1450 1452 1453 1455 1456 1458
1490 1489 1488 1487 1486 1484 1481 1478 1476 1473 1471 1468 1465 1462 1460 1456 1453 1451 1448 1445 1443 1441 1439 1438 1436 1436 1435 1435 1435 1435 1436 1437 1438 1439 1440 1441 1443 1444 1445 1447 1448 1449 1452 1453
1488 1487 1486 1484 1482 1480 1478 1475 1472 1469 1466 1463 1461 1458 1455 1452 1449 1446 1443 1441 1438 1436 1434 1433 1431 1431 1430 1430 1430 1430 1430 1431 1432 1433 1434 1436 1437 1439 1440 1441 1443 1444 1446 1447
1485 1484 1483 1481 1479 1477 1474 1471 1468 1465 1462 1459 1456 1453 1450 1447 1444 1441 1438 1436 1434 1431 1429 1428 1426 1425 1425 1425 1424 1424 1424 1425 1426 1427 1428 1430 1431 1432 1434 1435 1436 1437 1439 1440
1483 1481 1480 1478 1476 1473 1471 1468 1465 1462 1458 1455 1452 1449 1445 1442 1439 1436 1434 1431 1429 1426 1424 1423 1421 1420 1419 1419 1418 1418 1419 1419 1420 1421 1422 1423 1425 1426 1427 1428 1429 1430 1432 1434
1480 1479 1477 1475 1472 1469 1466 1464 1461 1458 1454 1451 1447 1444 1441 1438 1434 1431 1429 1426 1424 1421 1419 1418 1416 1415 1414 1413 1413 1413 1413 1414 1414 1415 1416 1417 1418 1420 1421 1422 1423 1424 1425 1426
1477 1475 1473 1471 1469 1466 1462 1459 1456 1453 1450 1446 1443 1439 1436 1433 1430 1427 1424 1422 1419 1417 1415 1413 1411 1410 1408 1408 1407 1407 1407 1408 1409 1409 1410 1411 1413 1413 1415 1415 1416 1417 1418 1418
1474 1472 1469 1467 1464 1461 1458 1454 1451 1448 1445 1441 1438 1434 1431 1428 1426 1423 1420 1417 1415 1413 1410 1408 1406 1405 1403 1403 1402 1402 1402 1402 1403 1404 1405 1405 1406 1407 1408 1409 1410 1410 1411 1411
1470 1467 1465 1462 1459 1456 1453 1450 1446 1443 1439 1436 1433 1429 1426 1423 1420 1418 1415 1412 1411 1409 1406 1404 1402 1400 1399 1398 1397 1397 1397 1397 1397 1398 1399 1399 1400 1401 1402 1403 1403 1404 1404 1405
1465 1463 1460 1457 1454 1451 1448 1445 1441 1438 1434 1431 1427 1424 1421 1417 1415 1412 1410 1408 1406 1404 1402 1400 1398 1396 1395 1394 1393 1392 1392 1392 1392 1393 1393 1394 1395 1395 1396 1397 1397 1398 1398 1398
1461 1458 1455 1452 1449 1445 1442 1439 1436 1432 1429 1426 1422 1419 1416 1413 1410 1407 1404 1403 1401 1399 1397 1395 1394 1392 1391 1390 1389 1388 1388 1388 1388 1388 1389 1389 1390 1390 1391 1391 1391 1392 1392 1392
1456 1453 1450 1447 1444 1440 1436 1433 1430 1427 1424 1420 1417 1414 1411 1407 1404 1402 1400 1398 1396 1395 1393 1391 1390 1388 1387 1386 1385 1385 1384 1384 1384 1384 1384 1384 1385 1385 1385 1386 1386 1386 1386 1386
1451 1448 1445 1441 1438 1434 1431 1427 1424 1421 1418 1415 1412 1409 1406 1403 1400 1398 1395 1393 1392 1390 1388 1387 1386 1384 1383 1383 1382 1381 1381 1380 1380 1380 1380 1380 1380 1381 1381 1381 1381 1381 1381 1381
1445 1442 1439 1436 1433 1429 1426 1422 1419 1416 1413 1409 1406 1404 1401 1398 1396 1393 1391 1389 1387 1385 1384 1383 1382 1381 1380 1379 1379 1378 1378 1377 1377 1377 1377 1377 1377 1377 1377 1377 1377 1377 1377 1377
1439 1436 1433 1429 1426 1424 1420 1417 1414 1410 1408 1404 1401 1398 1396 1393 1391 1388 1386 1384 1382 1381 1380 1379 1378 1377 1377 1376 1376 1375 1375 1374 1374 1374 1374 1373 1373 1373 1373 1373 1373 1373 1373 1373